Location: Karlsruhe
(49.0131°N, 8.3874°E)
Time: 00:55:05
(UTC+01:00)

ISS - Pass Details

Date: 13 November 2017
Orbit: 401 x 407 km, 51.6° (Epoch: 25 November)

Event Time Altitude Azimuth Distance (km) Brightness Sun altitude
Exits shadow 05:02:56 33° 83° (E) 694 -2.1 -24.5°
Drops below altitude 10° 05:04:56 10° 95° (E) 1,454 0.0 -24.2°
Sets 05:07:02 0° 99° (E) 2,312 1.4 -23.9°
